Historyczne dane pomiarowe

Dodano dane terminowe – wersja testowa.

Dane z okresu 1951-2019

Wersja bazy: 1.34 [2019-03-16, lista zmian], aktualizacja planowana na 2019-04-15

Dane meteo z obszaru Polski uzyskane na podstawie danych udostępnionych przez Instytut Meteorologii i Gospodarki Wodnej – Państwowy Instytut Badawczy.

 

Wybierz Datę:    

       

TemperaturaWilgotnośćWiatrCiśnienieOpadyŚniegCzas trwania zjawisk
 Stacja t tx tn tng RH VA  wxwx mslp ppp RRR   cm mm wxwxwxwxwxwxwx
1959-10-10 1.3 12.6-10.0-15.8 79.0- 0.7 0.0---- 0.0------------
1959-10-09 1.4 9.5 -7.5-10.9 75.3- 1.0 0.7---- 0.0------------
1959-10-08 6.4 11.4 2.1 0.8 91.0- 7.7 0.7---- 0.0------------
1959-10-07 11.5 17.6 5.3 4.7 84.0- 3.3 2.0---- 0.0------------
1959-10-06 9.2 15.1 1.2 -0.6 84.0- 7.3 1.3---- 0.0------------
1959-10-05 2.6 7.4-10.7-14.9 66.5- 6.0 0.3---- 0.0------------
1959-10-04 1.2 8.0 -2.7 -4.1 78.5- 3.0 1.0---- 0.0------------
1959-10-03 6.0 13.6 0.7 -0.1 85.3- 4.7 0.3---- 0.0------------
1959-10-02 7.4 14.6 -0.8 -6.4 90.0- 4.0 0.0---- 0.0------------
1959-10-01 10.0 16.3 1.2 1.3 81.3- 4.3 1.7---- 0.0------------
1959-09-30 7.4 11.5 1.1 0.5 77.3- 5.3 0.3---- 0.0------------
1959-09-29 6.6 10.1 -1.2 -2.3 84.8- 7.7 2.3---- 0.0------------
1959-09-28 6.4 10.9 3.6 5.3 84.5- 6.0 4.0---- 2.3------------
1959-09-27 10.4 16.9 -2.7 -5.9 85.3- 7.7 1.3---- 0.1------------
1959-09-26 5.2 15.2 -1.6 -6.0 96.3- 3.0 0.3---- 0.0------------
1959-09-25 5.6 13.6 -0.8 -2.8 86.8- 2.7 0.7---- 1.0------------
1959-09-24 10.0 13.6 5.1 3.7 89.8- 4.0 1.3---- 2.0------------
1959-09-23 11.5 15.8 6.2 5.7 87.8- 5.7 5.7---- 5.6------------
1959-09-22 11.8 14.6 5.0 5.3 90.3- 6.7 1.0---- 1.7------------
1959-09-21 10.3 17.7 0.6 -1.8 88.8- 6.7 1.7---- 0.0------------
1959-09-20 11.6 18.1 6.6 5.6 90.8- 3.3 0.7---- 0.0------------
1959-09-19 11.2 18.1 1.1 -2.2 85.0- 3.7 0.7---- 0.0------------
1959-09-18 8.2 14.6 2.9 2.6 85.5- 7.7 2.0---- 0.0------------
1959-09-17 7.1 12.6 -1.7 -7.0 87.3- 4.3 2.3---- 3.5------------
1959-09-16 8.6 14.6 4.1 8.7 83.0- 5.3 3.7---- 4.6------------
1959-09-15 12.6 18.1 3.5 1.4 76.3- 6.7 1.3---- 0.0------------
1959-09-14 7.8 15.6 1.8 -0.9 88.5- 5.0 0.7---- 1.3------------
1959-09-13 12.8 20.3 4.2 -0.2 95.0- 7.3 0.0---- 2.8------------
1959-09-12 11.8 21.3 -0.3 -1.7 87.5- 3.0 1.0---- 0.0------------
1959-09-11 12.4 21.0 2.8 1.9 87.8- 3.7 0.3---- 0.0------------
1959-09-10 14.4 20.1 2.3 -0.5 83.5- 6.7 0.3---- 0.0------------
1959-09-09 11.9 18.6 6.2 3.8 87.0- 2.3 3.3---- 0.0------------
1959-09-08 14.7 19.1 3.0 -1.0 80.0- 7.0 1.0---- 1.4------------
1959-09-07 11.7 17.7 4.4 0.3 84.5- 6.0 1.0---- 0.0------------
1959-09-06 13.2 17.1 4.0 4.0 84.5- 8.0 0.0---- 0.0------------
1959-09-05 10.4 16.6 -0.8 -4.3 93.0- 5.0 0.3---- 0.0------------
1959-09-04 10.7 16.6 4.4 3.7 75.0- 5.3 0.7---- 0.0------------
1959-09-03 12.6 17.4 7.4 5.9 77.0- 6.7 0.0---- 0.0------------
1959-09-02 11.7 17.9 2.1 -1.0 80.5- 4.3 0.3---- 0.0------------
1959-09-01 10.4 15.7 5.4 2.0 87.5- 6.0 1.7---- 5.3------------
1959-08-31 12.1 16.5 7.2 8.1 81.5- 7.7 1.0---- 1.3------------
1959-08-30 10.4 16.6 0.6 -3.9 80.8- 7.3 1.7---- 0.0------------
1959-08-29 8.8 14.7 3.3 3.0 78.8- 5.3 2.7---- 0.0------------
1959-08-28 9.8 16.6 6.5 1.2 87.5- 6.7 2.7---- 4.3------------
1959-08-27 13.6 20.1 8.4 11.1 65.5- 3.3 8.3---- 0.0------------
1959-08-26 18.6 24.0 12.1 13.1 66.3- 7.0 12.3---- 5.8------------
1959-08-25 20.4 26.4 12.0 9.4 78.8- 7.3 7.0---- 0.0------------
1959-08-24 20.0 28.8 11.1 9.2 82.5- 5.7 0.0---- 0.0------------
1959-08-23 21.4 29.0 7.5 6.3 73.8- 1.3 0.0---- 0.0------------
1959-08-22 19.4 29.1 9.1 7.2 83.0- 0.7 0.0---- 0.0------------
1959-08-21 18.7 26.2 7.8 5.3 83.8- 1.3 0.3---- 0.0------------
1959-08-20 17.4 28.5 7.5 4.5 85.5- 0.7 0.0---- 0.0------------
1959-08-19 17.9 25.5 7.5 6.5 84.5- 1.0 0.3---- 0.0------------
1959-08-18 19.0 26.1 7.7 5.4 77.0- 3.7 0.3---- 0.0------------
1959-08-17 16.3 24.7 9.8 7.9 78.8- 4.0 0.3---- 0.0------------
1959-08-16 18.0 23.8 6.8 8.8 81.5- 7.3 1.0---- 0.3------------
1959-08-15 14.8 23.5 4.9 1.9 79.0- 3.7 0.0---- 0.9------------
1959-08-14 16.9 23.2 10.3 8.5 67.3- 0.0 1.7---- 0.0------------
1959-08-13 19.9 25.6 15.5 13.2 77.8- 2.3 2.0---- 0.0------------
1959-08-12 20.0 25.9 10.7 5.9 79.0- 1.3 1.0---- 0.0------------
122.6 ms

 

Źródłem pochodzenia danych jest Instytut Meteorologii i Gospodarki Wodnej – Państwowy Instytut Badawczy. Dane Instytutu Meteorologii i Gospodarki Wodnej – Państwowego Instytutu Badawczego zostały przetworzone.

Dane źródłowe można odnaleźć na stronie https://dane.imgw.pl